Binghamton, NY

7:09 AM EST on November 17, 2019 (GMT -0500)
Binghamton Regional-Link

Weather History for KBGM - May, 2019

Change the Weather History Date:

Monday, May 27, 2019

  Actual Average Record
Temperature  
Mean Temperature 61 °F 59 °F  
Max Temperature 72 °F 69 °F 86 °F (2010)
Min Temperature 50 °F 50 °F 34 °F (1969)
Degree Days  
Heating Degree Days 4 7  
Month to date heating degree days 269 280  
Since 1 July heating degree days 7059 7079  
Cooling Degree Days 0 1  
Month to date cooling degree days 7 15  
Year to date cooling degree days 7 19  
Growing Degree Days 11 (Base 50)    
Moisture  
Dew Point 47 °F    
Average Humidity 62    
Maximum Humidity 86    
Minimum Humidity 38    
Precipitation  
Precipitation 0.00 in 0.11 in 1.62 in (2011)
Month to date precipitation 4.74 3.07  
Year to date precipitation 16.22 14.25  
Snow  
Snow 0.00 in 0.00 in T in (2001)
Month to date snowfall 0.0 0.1  
Since 1 July snowfall 81.4 83.4  
Snow Depth 0.00 in    
Sea Level Pressure  
Sea Level Pressure 29.98 in    
Wind  
Wind Speed 7 mph (North)    
Max Wind Speed 15 mph    
Max Gust Speed 23 mph    
Visibility 10 miles    
Events      
T = Trace of Precipitation, MM = Missing Value Source: NWS Daily Summary

Daily Weather History Graph

Daily Weather History Graph

Search for Another Location

Airport or City:

Astronomy

May. 27, 2019 Rise Set
Actual Time 5:33 AM EDT 8:29 PM EDT
Civil Twilight 4:59 AM EDT 9:02 PM EDT
Nautical Twilight 4:17 AM EDT 9:45 PM EDT
Astronomical Twilight 3:28 AM EDT 10:34 PM EDT
Moon 2:25 AM EDT (5/27) 1:30 PM EDT (5/27)
Length of Visible Light 16h 03m
Length of Day
14h 56m
Last Quarter, 41% of the Moon is Illuminated
May 27
Last Quarter
Jun 3
New
Jun 10
First Quarter
Jun 17
Full
Jun 25
Last Quarter

Hourly Weather History & Observations

Time (EDT) Temp. Dew Point Humidity Pressure Visibility Wind Dir Wind Speed Gust Speed Precip Events Conditions
12:53 AM 57.0 °F 46.9 °F 69% 29.96 in 10.0 mi NNW 6.9 mph - N/A   Clear
1:53 AM 55.0 °F 46.9 °F 74% 29.96 in 10.0 mi NNW 6.9 mph - N/A   Clear
2:53 AM 54.0 °F 46.9 °F 77% 29.96 in 10.0 mi NNW 9.2 mph - N/A   Clear
3:53 AM 53.1 °F 46.9 °F 80% 29.96 in 10.0 mi NW 6.9 mph - N/A   Clear
4:53 AM 51.1 °F 46.0 °F 83% 29.95 in 10.0 mi NE 3.5 mph - N/A   Clear
5:53 AM 50.0 °F 46.0 °F 86% 29.97 in 10.0 mi North 5.8 mph - N/A   Clear
6:53 AM 53.1 °F 48.0 °F 83% 30.01 in 10.0 mi West 3.5 mph - N/A   Clear
7:53 AM 57.0 °F 48.9 °F 74% 30.01 in 10.0 mi Calm Calm - N/A   Clear
8:53 AM 60.1 °F 51.1 °F 72% 30.03 in 10.0 mi NW 3.5 mph - N/A   Clear
9:53 AM 63.0 °F 52.0 °F 67% 30.02 in 10.0 mi WNW 3.5 mph - N/A   Clear
10:53 AM 66.9 °F 50.0 °F 54% 30.00 in 10.0 mi Variable 4.6 mph - N/A   Clear
11:53 AM 66.0 °F 46.9 °F 50% 30.00 in 10.0 mi NNW 10.4 mph - N/A   Mostly Cloudy
12:53 PM 70.0 °F 48.0 °F 46% 29.99 in 10.0 mi North 9.2 mph - N/A   Clear
1:53 PM 70.0 °F 46.9 °F 44% 29.98 in 10.0 mi North 10.4 mph - N/A   Partly Cloudy
2:53 PM 70.0 °F 45.0 °F 41% 29.98 in 10.0 mi North 11.5 mph - N/A   Scattered Clouds
3:53 PM 70.0 °F 46.9 °F 44% 29.97 in 10.0 mi North 12.7 mph 23.0 mph N/A   Partly Cloudy
4:53 PM 71.1 °F 45.0 °F 39% 29.95 in 10.0 mi NNW 10.4 mph - N/A   Scattered Clouds
5:53 PM 68.0 °F 48.0 °F 49% 29.96 in 10.0 mi North 6.9 mph - N/A   Mostly Cloudy
6:53 PM 66.9 °F 48.0 °F 51% 29.96 in 10.0 mi North 9.2 mph - N/A   Clear
7:53 PM 64.0 °F 46.9 °F 54% 29.97 in 10.0 mi North 5.8 mph - N/A   Clear
8:53 PM 61.0 °F 46.9 °F 60% 29.97 in 10.0 mi NNE 6.9 mph - N/A   Clear
9:53 PM 60.1 °F 46.0 °F 60% 29.98 in 10.0 mi NNE 5.8 mph - N/A   Clear
10:53 PM 57.9 °F 45.0 °F 62% 29.95 in 10.0 mi ENE 5.8 mph - N/A   Clear
11:53 PM 57.9 °F 46.0 °F 65% 29.93 in 10.0 mi East 4.6 mph - N/A   Clear